Tracking 20721 objects as of 2-Jun-2020
HD Live streaming from Space Station
objects crossing your sky now

COSMOS 1814

Track COSMOS 1814 now!
10-day predictions
COSMOS 1814 is classified as:


NORAD ID: 17303
Int'l Code: 1987-006A
Perigee: 763.7 km
Apogee: 800.6 km
Inclination: 74.1 °
Period: 100.3 minutes
Semi major axis: 7153 km
RCS: 2.1989 m2 (large)
Launch date: January 21, 1987
Source: Commonwealth of Independent States (former USSR) (CIS)
Launch site: PLESETSK MISSILE AND SPACE COMPLEX (PKMTR)
aabbcc
Your satellite tracking list
Your tracking list is empty




NASA's NSSDC Master Catalog

Two Line Element Set (TLE):
1 17303U 87006A   20151.82659120 +.00000007 +00000-0 +11490-4 0  9993
2 17303 074.0562 342.6293 0025775 270.7103 089.1096 14.35013689745442
Source of the keplerian elements: AFSPC